GLD1144 TNCM-MDPP

Flight info

Callsign GLD1144
Flight time 1h 11m
Altitude 38000
Route BOPAT2 JUICE DCT FAJAR DCT KATOK DCT VOGEP DCT KERSO DCT RIBES RIBE2A
Aircraft C25C/M-SDFGIRY/S

Departure

Time 2026-05-04 23:23
Airport Princess Juliana International Airport (TNCM)

Arrival

Time 2026-05-05 00:35
Airport Gregorio Luperon International Airport (MDPP)
Time Latitude Longitude Altitude Speed Heading
2026-05-04 23:06 18.04203 -63.11037 19 ft 0 kts 352°
2026-05-04 23:16 18.04204 -63.11043 18 ft 2 kts 276°
2026-05-04 23:17 18.04171 -63.11060 18 ft 8 kts 222°
2026-05-04 23:17 18.04156 -63.11111 18 ft 7 kts 261°
2026-05-04 23:17 18.04148 -63.11178 18 ft 10 kts 262°
2026-05-04 23:17 18.04137 -63.11248 17 ft 9 kts 261°
2026-05-04 23:18 18.04136 -63.11266 17 ft 0 kts 266°
2026-05-04 23:18 18.04135 -63.11272 17 ft 6 kts 261°
2026-05-04 23:18 18.04120 -63.11336 17 ft 11 kts 263°
2026-05-04 23:18 18.04156 -63.11393 17 ft 10 kts 324°
2026-05-04 23:19 18.04198 -63.11442 17 ft 9 kts 299°
2026-05-04 23:19 18.04204 -63.11497 17 ft 7 kts 238°
2026-05-04 23:19 18.04170 -63.11542 17 ft 9 kts 231°
2026-05-04 23:19 18.04129 -63.11595 17 ft 9 kts 231°
2026-05-04 23:20 18.04090 -63.11645 17 ft 8 kts 232°
2026-05-04 23:20 18.04062 -63.11706 17 ft 10 kts 260°
2026-05-04 23:20 18.04051 -63.11780 17 ft 10 kts 261°
2026-05-04 23:20 18.04041 -63.11848 17 ft 7 kts 261°
2026-05-04 23:21 18.04040 -63.11855 17 ft 0 kts 262°
2026-05-04 23:21 18.04038 -63.11866 19 ft 6 kts 259°
2026-05-04 23:22 18.04012 -63.11927 18 ft 11 kts 236°
2026-05-04 23:22 18.03969 -63.11967 18 ft 7 kts 189°
2026-05-04 23:22 18.03942 -63.11949 19 ft 4 kts 96°
2026-05-04 23:22 18.03951 -63.11885 19 ft 41 kts 81°
2026-05-04 23:23 18.04054 -63.11158 66 ft 139 kts 86°
2026-05-04 23:23 18.04220 -63.10056 515 ft 166 kts 84°
2026-05-04 23:23 18.04161 -63.08810 1024 ft 184 kts 110°
2026-05-04 23:23 18.03242 -63.07814 1697 ft 203 kts 152°
2026-05-04 23:24 18.01827 -63.07637 2626 ft 212 kts 184°
2026-05-04 23:24 18.00371 -63.08167 3440 ft 237 kts 204°
2026-05-04 23:24 17.99070 -63.09335 4336 ft 252 kts 226°
2026-05-04 23:24 17.98119 -63.10856 5533 ft 250 kts 234°
2026-05-04 23:25 17.97060 -63.12384 6149 ft 270 kts 229°
2026-05-04 23:25 17.95910 -63.14029 6775 ft 286 kts 233°
2026-05-04 23:25 17.94837 -63.15796 7837 ft 286 kts 235°
2026-05-04 23:25 17.93772 -63.17577 8888 ft 289 kts 236°
2026-05-04 23:26 17.92665 -63.19340 9965 ft 291 kts 235°
2026-05-04 23:26 17.91606 -63.21200 10475 ft 309 kts 246°
2026-05-04 23:26 17.91304 -63.23538 10476 ft 344 kts 275°
2026-05-04 23:26 17.92099 -63.25985 10785 ft 361 kts 296°
2026-05-04 23:27 17.93374 -63.28242 11649 ft 361 kts 301°
2026-05-04 23:27 17.94720 -63.30506 12304 ft 368 kts 300°
2026-05-04 23:27 17.95949 -63.32874 13048 ft 370 kts 296°
2026-05-04 23:27 17.97099 -63.35309 13753 ft 375 kts 296°
2026-05-04 23:28 17.98322 -63.37742 14402 ft 378 kts 298°
2026-05-04 23:28 17.99605 -63.40163 15121 ft 379 kts 298°
2026-05-04 23:28 18.00861 -63.42597 15825 ft 380 kts 297°
2026-05-04 23:28 18.02094 -63.45064 16547 ft 381 kts 297°
2026-05-04 23:29 18.03329 -63.47505 17441 ft 378 kts 298°
2026-05-04 23:29 18.04573 -63.49921 18118 ft 383 kts 298°
2026-05-04 23:29 18.05843 -63.52403 18717 ft 388 kts 298°
2026-05-04 23:29 18.07135 -63.54950 19363 ft 392 kts 297°
2026-05-04 23:30 18.08423 -63.57489 19978 ft 397 kts 297°
2026-05-04 23:30 18.09739 -63.60072 20462 ft 406 kts 297°
2026-05-04 23:30 18.11066 -63.62677 20976 ft 414 kts 297°
2026-05-04 23:30 18.12425 -63.65376 21514 ft 420 kts 296°
2026-05-04 23:31 18.13150 -63.67312 21812 ft 425 kts 285°
2026-05-04 23:31 18.13759 -63.70375 22336 ft 431 kts 279°
2026-05-04 23:31 18.14333 -63.73742 22978 ft 437 kts 278°
2026-05-04 23:31 18.14624 -63.75404 23290 ft 440 kts 279°
2026-05-04 23:32 18.15000 -63.77507 23668 ft 444 kts 279°
2026-05-04 23:32 18.15577 -63.80714 24234 ft 446 kts 279°
2026-05-04 23:32 18.16143 -63.83932 24785 ft 450 kts 279°
2026-05-04 23:32 18.16707 -63.87178 25410 ft 451 kts 279°
2026-05-04 23:33 18.17279 -63.90433 25975 ft 454 kts 280°
2026-05-04 23:33 18.17859 -63.93716 26499 ft 458 kts 280°
2026-05-04 23:33 18.18438 -63.97014 27104 ft 460 kts 280°
2026-05-04 23:33 18.19018 -64.00334 27675 ft 463 kts 281°
2026-05-04 23:34 18.19601 -64.03671 28262 ft 465 kts 281°
2026-05-04 23:34 18.20188 -64.07023 28850 ft 467 kts 281°
2026-05-04 23:34 18.20778 -64.10390 29392 ft 470 kts 281°
2026-05-04 23:34 18.21368 -64.13784 29941 ft 472 kts 282°
2026-05-04 23:35 18.21961 -64.17188 30362 ft 476 kts 282°
2026-05-04 23:35 18.22552 -64.20578 30830 ft 477 kts 282°
2026-05-04 23:35 18.23140 -64.23953 31279 ft 478 kts 281°
2026-05-04 23:35 18.23733 -64.27374 31948 ft 474 kts 281°
2026-05-04 23:36 18.24322 -64.30773 32552 ft 472 kts 281°
2026-05-04 23:36 18.24910 -64.34160 33155 ft 469 kts 281°
2026-05-04 23:36 18.25495 -64.37536 33776 ft 467 kts 281°
2026-05-04 23:36 18.26073 -64.40881 34398 ft 464 kts 281°
2026-05-04 23:37 18.26648 -64.44213 34932 ft 462 kts 281°
2026-05-04 23:37 18.27219 -64.47519 35531 ft 458 kts 281°
2026-05-04 23:37 18.27785 -64.50800 36161 ft 454 kts 281°
2026-05-04 23:37 18.28346 -64.54057 36827 ft 450 kts 281°
2026-05-04 23:38 18.28901 -64.57284 37489 ft 446 kts 282°
2026-05-04 23:38 18.29450 -64.60477 38040 ft 445 kts 282°
2026-05-04 23:38 18.30010 -64.63730 38041 ft 456 kts 282°
2026-05-04 23:38 18.30579 -64.67049 38043 ft 467 kts 282°
2026-05-04 23:39 18.31754 -64.73920 38051 ft 487 kts 282°
2026-05-04 23:39 18.32973 -64.81051 38045 ft 500 kts 282°
2026-05-04 23:40 18.34201 -64.88264 38046 ft 502 kts 281°
2026-05-04 23:40 18.35441 -64.95553 38056 ft 505 kts 281°
2026-05-04 23:41 18.36667 -65.02785 38049 ft 505 kts 281°
2026-05-04 23:41 18.37885 -65.09979 38050 ft 505 kts 281°
2026-05-04 23:42 18.39084 -65.17082 38055 ft 505 kts 281°
2026-05-04 23:42 18.40323 -65.24440 38068 ft 505 kts 281°
2026-05-04 23:43 18.41547 -65.31727 38077 ft 505 kts 281°
2026-05-04 23:43 18.42766 -65.38997 38077 ft 504 kts 281°
2026-05-04 23:44 18.43983 -65.46277 38076 ft 505 kts 281°
2026-05-04 23:44 18.45198 -65.53559 38076 ft 505 kts 281°
2026-05-04 23:45 18.46409 -65.60837 38075 ft 504 kts 281°
2026-05-04 23:45 18.47603 -65.68111 38076 ft 504 kts 280°
2026-05-04 23:46 18.48731 -65.75328 38077 ft 501 kts 280°
2026-05-04 23:46 18.49904 -65.82623 38068 ft 502 kts 280°
2026-05-04 23:47 18.51044 -65.89873 38065 ft 502 kts 280°
2026-05-04 23:47 18.52196 -65.97132 38066 ft 502 kts 280°
2026-05-04 23:48 18.53335 -66.04400 38054 ft 502 kts 280°
2026-05-04 23:48 18.54476 -66.11616 38059 ft 502 kts 280°
2026-05-04 23:49 18.55621 -66.18922 38052 ft 502 kts 280°
2026-05-04 23:49 18.56749 -66.26128 38052 ft 502 kts 280°
2026-05-04 23:50 18.57885 -66.33398 38053 ft 502 kts 279°
2026-05-04 23:50 18.59015 -66.40665 38060 ft 502 kts 279°
2026-05-04 23:51 18.60140 -66.47922 38043 ft 502 kts 279°
2026-05-04 23:51 18.61265 -66.55195 38052 ft 502 kts 279°
2026-05-04 23:52 18.62387 -66.62461 38055 ft 501 kts 279°
2026-05-04 23:52 18.63505 -66.69718 38061 ft 502 kts 279°
2026-05-04 23:53 18.64620 -66.76974 38057 ft 502 kts 279°
2026-05-04 23:53 18.65733 -66.84242 38061 ft 502 kts 279°
2026-05-04 23:54 18.66844 -66.91507 38072 ft 501 kts 279°
2026-05-04 23:54 18.67949 -66.98761 38069 ft 501 kts 279°
2026-05-04 23:55 18.69054 -67.06018 38069 ft 501 kts 279°
2026-05-04 23:56 18.70697 -67.16866 38072 ft 501 kts 279°
2026-05-04 23:56 18.71792 -67.24127 38071 ft 501 kts 278°
2026-05-04 23:57 18.72885 -67.31381 38069 ft 500 kts 278°
2026-05-04 23:57 18.73974 -67.38634 38068 ft 500 kts 278°
2026-05-04 23:58 18.75060 -67.45884 38067 ft 500 kts 278°
2026-05-04 23:58 18.76143 -67.53138 38074 ft 500 kts 278°
2026-05-04 23:59 18.77220 -67.60361 38072 ft 496 kts 278°
2026-05-04 23:59 18.78288 -67.67556 38071 ft 497 kts 278°
2026-05-05 00:00 18.79356 -67.74763 38070 ft 497 kts 278°
2026-05-05 00:00 18.80421 -67.81967 38069 ft 496 kts 278°
2026-05-05 00:01 18.81482 -67.89168 38063 ft 497 kts 278°
2026-05-05 00:01 18.82540 -67.96366 38069 ft 497 kts 278°
2026-05-05 00:02 18.83511 -68.03587 38065 ft 497 kts 277°
2026-05-05 00:02 18.84425 -68.10816 38066 ft 497 kts 277°
2026-05-05 00:03 18.85317 -68.18051 38066 ft 497 kts 277°
2026-05-05 00:03 18.86214 -68.25267 38065 ft 493 kts 277°
2026-05-05 00:04 18.87092 -68.32406 38064 ft 494 kts 277°
2026-05-05 00:04 18.87979 -68.39601 38068 ft 494 kts 277°
2026-05-05 00:05 18.88861 -68.46805 38062 ft 494 kts 277°
2026-05-05 00:05 18.89741 -68.54006 38066 ft 494 kts 277°
2026-05-05 00:06 18.90617 -68.61189 38060 ft 493 kts 277°
2026-05-05 00:06 18.91489 -68.68372 38062 ft 493 kts 277°
2026-05-05 00:07 18.92357 -68.75557 38058 ft 493 kts 277°
2026-05-05 00:07 18.93221 -68.82734 38068 ft 493 kts 277°
2026-05-05 00:08 18.94087 -68.89913 38062 ft 492 kts 277°
2026-05-05 00:08 18.94943 -68.97076 38064 ft 491 kts 277°
2026-05-05 00:09 18.95799 -69.04236 38057 ft 491 kts 277°
2026-05-05 00:09 18.96648 -69.11380 38058 ft 487 kts 277°
2026-05-05 00:10 18.97582 -69.18469 38050 ft 488 kts 278°
2026-05-05 00:10 18.98627 -69.25541 38057 ft 486 kts 278°
2026-05-05 00:11 18.99659 -69.32600 38048 ft 486 kts 278°
2026-05-05 00:11 19.00698 -69.39668 38041 ft 487 kts 278°
2026-05-05 00:11 19.01208 -69.43168 37650 ft 473 kts 278°
2026-05-05 00:12 19.01535 -69.45411 37220 ft 460 kts 278°
2026-05-05 00:12 19.02188 -69.49878 36358 ft 468 kts 278°
2026-05-05 00:12 19.02518 -69.52148 35919 ft 472 kts 278°
2026-05-05 00:12 19.03015 -69.55564 35246 ft 469 kts 278°
2026-05-05 00:13 19.03509 -69.58959 34585 ft 466 kts 278°
2026-05-05 00:13 19.03999 -69.62339 33930 ft 464 kts 278°
2026-05-05 00:13 19.04487 -69.65698 33252 ft 461 kts 278°
2026-05-05 00:13 19.05283 -69.68965 32573 ft 460 kts 289°
2026-05-05 00:14 19.06770 -69.71947 31931 ft 460 kts 302°
2026-05-05 00:14 19.08725 -69.74614 31310 ft 458 kts 307°
2026-05-05 00:14 19.10726 -69.77228 30662 ft 456 kts 307°
2026-05-05 00:14 19.12705 -69.79830 30011 ft 452 kts 306°
2026-05-05 00:15 19.14652 -69.82423 29333 ft 447 kts 306°
2026-05-05 00:15 19.16586 -69.84993 28705 ft 443 kts 307°
2026-05-05 00:15 19.18501 -69.87521 28085 ft 439 kts 307°
2026-05-05 00:15 19.20402 -69.90032 27463 ft 434 kts 307°
2026-05-05 00:16 19.22275 -69.92518 26854 ft 430 kts 307°
2026-05-05 00:16 19.24321 -69.94795 26234 ft 426 kts 315°
2026-05-05 00:16 19.26525 -69.96879 25652 ft 423 kts 317°
2026-05-05 00:16 19.28723 -69.98934 25059 ft 419 kts 317°
2026-05-05 00:17 19.30862 -70.00995 24471 ft 415 kts 316°
2026-05-05 00:17 19.32980 -70.03059 23881 ft 411 kts 316°
2026-05-05 00:17 19.35087 -70.05079 23265 ft 406 kts 317°
2026-05-05 00:17 19.37174 -70.07064 22688 ft 401 kts 316°
2026-05-05 00:18 19.39234 -70.09041 22132 ft 398 kts 316°
2026-05-05 00:18 19.41269 -70.11006 21570 ft 394 kts 316°
2026-05-05 00:18 19.43293 -70.12953 21019 ft 391 kts 316°
2026-05-05 00:18 19.45298 -70.14876 20474 ft 387 kts 316°
2026-05-05 00:19 19.47287 -70.16787 19924 ft 383 kts 315°
2026-05-05 00:19 19.49250 -70.18677 19400 ft 380 kts 315°
2026-05-05 00:19 19.51177 -70.20533 18868 ft 376 kts 315°
2026-05-05 00:19 19.53109 -70.22395 18337 ft 374 kts 315°
2026-05-05 00:20 19.55028 -70.24238 17785 ft 371 kts 315°
2026-05-05 00:20 19.56942 -70.26080 17261 ft 370 kts 315°
2026-05-05 00:20 19.58840 -70.27912 16743 ft 369 kts 315°
2026-05-05 00:20 19.60715 -70.29721 16231 ft 368 kts 315°
2026-05-05 00:21 19.62627 -70.31562 15719 ft 365 kts 315°
2026-05-05 00:21 19.64480 -70.33349 15215 ft 364 kts 315°
2026-05-05 00:21 19.66374 -70.35177 14705 ft 363 kts 316°
2026-05-05 00:21 19.68237 -70.36977 14193 ft 359 kts 315°
2026-05-05 00:22 19.70037 -70.38710 13696 ft 339 kts 315°
2026-05-05 00:22 19.71732 -70.40345 13218 ft 321 kts 315°
2026-05-05 00:22 19.73324 -70.41885 12797 ft 308 kts 315°
2026-05-05 00:22 19.74895 -70.43405 12377 ft 303 kts 314°
2026-05-05 00:23 19.76448 -70.44906 11957 ft 301 kts 315°
2026-05-05 00:23 19.77997 -70.46403 11537 ft 300 kts 315°
2026-05-05 00:23 19.79536 -70.47891 11118 ft 299 kts 316°
2026-05-05 00:23 19.81069 -70.49373 10704 ft 298 kts 315°
2026-05-05 00:24 19.82521 -70.50924 10258 ft 295 kts 306°
2026-05-05 00:24 19.83331 -70.52903 9827 ft 291 kts 281°
2026-05-05 00:24 19.83343 -70.55016 9403 ft 282 kts 258°
2026-05-05 00:24 19.82815 -70.56970 9050 ft 272 kts 251°
2026-05-05 00:25 19.82247 -70.58887 8668 ft 272 kts 252°
2026-05-05 00:25 19.81692 -70.60800 8281 ft 271 kts 252°
2026-05-05 00:25 19.81144 -70.62708 7894 ft 269 kts 252°
2026-05-05 00:25 19.80600 -70.64592 7507 ft 266 kts 252°
2026-05-05 00:26 19.80060 -70.66452 7136 ft 261 kts 253°
2026-05-05 00:26 19.79527 -70.68290 6767 ft 261 kts 252°
2026-05-05 00:26 19.78994 -70.70127 6403 ft 259 kts 253°
2026-05-05 00:26 19.78473 -70.71924 6023 ft 251 kts 253°
2026-05-05 00:27 19.77966 -70.73674 5662 ft 246 kts 253°
2026-05-05 00:27 19.77469 -70.75392 5333 ft 244 kts 253°
2026-05-05 00:27 19.76973 -70.77096 4987 ft 238 kts 253°
2026-05-05 00:27 19.76491 -70.78753 4644 ft 232 kts 252°
2026-05-05 00:28 19.75961 -70.80342 4290 ft 225 kts 242°
2026-05-05 00:28 19.74879 -70.81494 3959 ft 219 kts 211°
2026-05-05 00:28 19.73510 -70.81969 3980 ft 200 kts 187°
2026-05-05 00:28 19.72184 -70.81803 3993 ft 186 kts 166°
2026-05-05 00:29 19.70975 -70.81380 3985 ft 182 kts 160°
2026-05-05 00:29 19.70011 -70.80513 3984 ft 185 kts 126°
2026-05-05 00:29 19.69549 -70.79205 3800 ft 198 kts 95°
2026-05-05 00:29 19.69765 -70.77789 3575 ft 192 kts 72°
2026-05-05 00:30 19.70169 -70.76475 3340 ft 189 kts 73°
2026-05-05 00:30 19.70548 -70.75152 3078 ft 186 kts 74°
2026-05-05 00:30 19.70919 -70.73843 2841 ft 176 kts 75°
2026-05-05 00:30 19.71262 -70.72666 2632 ft 159 kts 74°
2026-05-05 00:31 19.71575 -70.71592 2402 ft 145 kts 75°
2026-05-05 00:31 19.71857 -70.70614 2235 ft 136 kts 77°
2026-05-05 00:31 19.72138 -70.69635 2070 ft 139 kts 76°
2026-05-05 00:31 19.72423 -70.68646 1919 ft 141 kts 75°
2026-05-05 00:32 19.72707 -70.67670 1784 ft 135 kts 75°
2026-05-05 00:32 19.72981 -70.66718 1557 ft 134 kts 77°
2026-05-05 00:32 19.73250 -70.65795 1382 ft 128 kts 78°
2026-05-05 00:32 19.73504 -70.64919 1199 ft 121 kts 77°
2026-05-05 00:33 19.73745 -70.64096 1061 ft 118 kts 77°
2026-05-05 00:33 19.74000 -70.63247 887 ft 122 kts 76°
2026-05-05 00:33 19.74232 -70.62391 775 ft 119 kts 75°
2026-05-05 00:33 19.74461 -70.61549 605 ft 121 kts 72°
2026-05-05 00:34 19.74712 -70.60692 499 ft 122 kts 73°
2026-05-05 00:34 19.74962 -70.59818 330 ft 125 kts 69°
2026-05-05 00:34 19.75223 -70.58941 193 ft 123 kts 69°
2026-05-05 00:34 19.75475 -70.58077 39 ft 120 kts 70°
2026-05-05 00:35 19.75681 -70.57367 29 ft 69 kts 71°
2026-05-05 00:35 19.75785 -70.57002 32 ft 35 kts 73°
2026-05-05 00:35 19.75843 -70.56799 32 ft 25 kts 74°
2026-05-05 00:35 19.75891 -70.56635 34 ft 25 kts 73°
2026-05-05 00:36 19.75938 -70.56473 33 ft 14 kts 72°
2026-05-05 00:36 19.75908 -70.56428 33 ft 9 kts 162°
2026-05-05 00:36 19.75835 -70.56404 32 ft 8 kts 162°
2026-05-05 00:36 19.75804 -70.56393 32 ft 3 kts 163°
2026-05-05 00:37 19.75762 -70.56380 31 ft 7 kts 163°
2026-05-05 00:37 19.75713 -70.56362 31 ft 7 kts 146°
2026-05-05 00:37 19.75704 -70.56315 31 ft 7 kts 76°
2026-05-05 00:37 19.75698 -70.56289 31 ft 4 kts 149°
2026-05-05 00:38 19.75671 -70.56281 31 ft 4 kts 164°
2026-05-05 00:38 19.75655 -70.56276 31 ft 0 kts 163°